P/2010 R2 (La Sagra)
Epoch 2010 June 13.0 TT = JDT 2455360.5  
T 2010 June 25.81399 TT                                 Nakano
q   2.6226388            (2000.0)            P               Q
n   0.18073951     Peri.   59.54167     +0.80922317     +0.46050994
a   3.0981372      Node   270.75896     -0.58038699     +0.72296762
e   0.1534788      Incl.   21.39804     +0.09115265     +0.51502273
P   5.45
From 372 observations 2010 Aug. 12-2011 Aug. 29, mean residual 0".49.
Residuals in seconds of arc 
2010/                     100928 A77  0.4+  0.1+    101011 D92  0.6+  0.1+  
100812 J75  0.6-  1.8+    100928 A77  0.2+  0.3+    101011 585  0.8+  0.1-  
100813 J75  0.2+  0.7+    100929 213  0.2-  0.3+    101011 585  0.7+  1.2-  
100813 J75  0.1-  0.9+    100929 213 (8.8-  4.4-)   101011 585  0.1-  0.7-  
100914 703  0.7-  1.9-    100929 160  0.2+  0.2+    101011 B82  0.1+  0.2+  
100914 703  0.3+  1.6-    100929 160  0.0   0.1-    101011 B82  0.0   0.3+  
100914 703  0.3-  1.0-    100929 160  0.0   0.3-    101011 B82  0.1-  0.4-  
100914 703  0.4-  1.2-    100929 J08  0.5-  0.1-    101013 703  1.6+  0.5-  
100914 J75  0.2-  0.3+    100929 B33  0.2+  0.3-    101013 703 (2.0+  0.7-) 
100914 J75  0.4-  0.2+    100929 B33  0.4-  1.9+    101013 703  0.3+  0.9+  
100914 J75  0.5-  0.6-    100930 B42  0.4-  0.1-    101013 703  0.1+  0.2+  
100915 704  0.7+  0.3+    100930 B42  0.2-  0.2+    101013 585  0.5-  0.4-  
100915 704  0.3+  0.4-    100930 B42  0.4-  1.4+    101013 585  0.1+  0.2-  
100915 704  1.0+  0.7-    100930 J47  0.0   0.4-    101013 585  0.1-  0.5+  
100915 704  0.6+  0.3-    100930 J47  0.1-  0.4-    101013 585  0.1-  0.3+  
100915 704  0.3-  0.1-    100930 J47  0.6-  0.0     101013 585  0.1-  0.3+  
100916 J75  0.3-  0.2+    100930 118  0.2-  0.6-    101013 585  0.2+  0.6-  
100916 J75  0.3-  0.3+    100930 118  0.3-  0.7-    101013 585  0.2-  0.4+  
100916 J75  0.2-  0.5+    100930 118  0.2-  0.2+    101013 585  0.9+  0.5-  
100916 J75  0.0   0.3+    101001 H10  0.4+  0.5+    101014 A77 (2.5+  0.7-) 
100916 704  0.2+  0.6+    101001 H10  0.4-  0.3-    101014 A77  1.4+  0.0   
100916 704  0.5+  0.6+    101001 I99  0.8+  0.7+    101014 A77  0.6+  0.4+  
100916 704  0.2+  0.6+    101001 I99  0.7-  0.3+    101014 J47  0.5-  0.3-  
100916 704  0.2+  0.2+    101001 I99  0.3-  0.3-    101014 J47  0.3-  0.2-  
100916 704  0.2+  0.3-    101002 D92  0.2-  0.0     101014 J47  0.0   0.1-  
100916 704  0.0   0.0     101002 D92  0.6-  0.1-    101015 213  0.3+  0.4-  
100916 704  0.4-  0.1-    101002 160  0.4-  0.2+    101015 213  0.7+  0.3+  
100916 704  0.0   0.3-    101002 160  0.1+  0.0     101015 213  0.3-  0.3+  
100916 704  0.3-  0.2+    101002 160  0.0   0.5-    101017 J01  0.7+  0.2+  
100916 704  0.0   0.1+    101002 473  0.3-  0.5-    101017 J01  0.8+  0.5-  
100916 J95  0.3-  0.0     101002 473  0.2-  0.3-    101017 J01  0.0   0.5-  
100916 J95  0.2-  0.1+    101003 215  0.2+  0.3-    101019 213  0.5+  0.9-  
100916 J95  0.3-  0.0     101003 215  0.1+  0.3-    101019 213  0.3-  0.4-  
100917 H21  0.9-  0.3-    101003 215  0.1+  0.2-    101019 213  0.9-  0.1-  
100917 H21  0.2-  0.5+    101003 B82  0.5+  0.7-    101020 160  0.3+  0.1+  
100917 H21  0.2-  0.3-    101003 B82  0.1+  0.5-    101020 160  0.2+  0.1+  
100917 291  0.4-  0.3-    101003 B82  0.2+  0.2-    101020 160  0.1+  0.3+  
100917 682  0.1-  0.2-    101004 B42  0.3-  0.2-    101021 160  0.3-  0.6+  
100917 291  0.4-  0.3-    101004 B42  0.6+  0.7-    101021 160  0.8-  0.4+  
100917 291  0.4-  0.1-    101004 J01  0.3+  0.3-    101021 160  0.2+  0.0   
100917 291  0.5-  0.6-    101004 J01  0.2+  0.3-    101022 160  0.1+  0.3+  
100917 291  0.5-  0.5-    101004 J01  0.1+  0.1-    101022 160  0.1+  0.3+  
100917 291  0.4-  0.7-    101004 B82  0.2-  0.1+    101022 160  0.4-  0.7+  
100917 682  0.4-  0.3-    101004 B82  0.1+  0.0     101024 213  0.6-  0.3+  
100917 704  0.1+  0.8+    101004 B82  0.4-  0.1-    101024 213  0.1-  0.2-  
100917 704  0.2-  0.6+    101005 372  0.0   0.6+    101024 213  0.0   0.1-  
100917 704  0.1+  0.3+    101005 372  0.2-  0.3+    101025 J47  0.7+  0.6-  
100917 704  0.0   0.8+    101005 372  0.3-  0.4+    101025 J47  1.5+  0.2-  
100917 704  0.2-  0.5+    101005 B49  0.3-  0.3+    101025 J47  1.7+  0.1-  
100917 300  0.1-  0.7+    101005 B49  0.3+  0.2-    101026 J47  0.3-  0.4-  
100917 300  0.4-  0.3+    101005 B49  0.2+  0.5-    101026 J47  0.4-  0.0   
100917 300  0.2-  0.2-    101005 213  0.1+  0.1+    101026 J47  0.5-  0.1+  
100917 300  0.1-  0.5+    101005 213  1.1+  0.4+    101027 J47  0.2+  0.4-  
100917 D96  0.3+  0.6-    101005 213  0.5+  0.0     101027 J47  0.3-  0.4-  
100917 D96  0.1-  0.2-    101006 H06  0.2+  0.4-    101027 J47  0.4+  0.7-  
100917 D96  0.2-  0.2-    101006 H06  0.0   0.2-    101028 235  0.0   0.2+  
100917 D96  0.6-  0.2+    101006 900  0.2+  0.8+    101028 235  0.7+  0.3-  
100917 349  0.5+  0.7-    101006 900  0.2-  0.4+    101028 585  0.1+  0.4+  
100917 349  0.2+  0.4-    101006 958 (2.2-  3.4-)   101028 585  0.2+  0.3+  
100917 J47  0.8-  0.3+    101006 958  1.9-  1.5-    101028 585  0.2+  0.4+  
100917 C32  0.4-  0.4+    101006 958  0.3-  0.7+    101028 585  0.1+  0.1+  
100917 J47  0.7-  0.5+    101007 H10  0.0   0.9+    101028 585  0.3-  0.7+  
100917 C32  0.3-  0.3+    101007 H10  0.0   0.2+    101028 585  0.0   0.4+  
100917 J47  0.5-  0.0     101007 235  0.3+  0.2-    101031 H45  0.8+  0.6-  
100917 J47  0.5-  0.2+    101007 235  0.1+  0.2+    101031 H45  0.5+  0.3-  
100917 J47  0.5-  0.1-    101007 561  0.2+  0.2+    101031 H45  0.6+  0.6-  
100917 J47  0.5-  0.1-    101007 J38  0.3+  0.6+    101031 H45  0.0   0.4+  
100917 J47  0.7-  0.4+    101007 561  0.5+  0.3+    101031 H45  0.5+  0.4-  
100917 B82  0.1+  1.0+    101007 J38  0.8+  0.4+    101031 H45  0.2-  0.1-  
100917 J47  0.4-  0.2-    101007 561  0.6+  0.2+    101102 J47  0.3+  0.6-  
100917 C32  0.4-  0.7+    101007 J38  0.2+  0.7+    101102 J47  0.0   0.3-  
100917 B82  0.0   0.5+    101008 850  0.0   0.6-    101102 J47  0.5+  0.7-  
100917 B82  0.3+  0.8+    101008 850  0.1+  0.4+    101103 H10  0.6+  1.4-  
100918 J01  0.2+  0.1+    101008 850  0.1-  0.2-    101103 H10  0.2-  0.6-  
100918 J01  0.2-  0.1+    101008 850  0.7+  0.5-    101103 H10  0.6-  0.9-  
100918 J01  0.0   0.1+    101008 850  0.6+  1.2-    101103 H10 (0.0   2.3-) 
100918 B82  0.5+  1.0+    101008 585  0.1+  0.2+    101103 349  0.7+  0.0   
100918 B82  0.3-  0.4+    101008 585  0.4-  0.6+    101103 349  0.3+  0.3-  
100918 B82  0.5+  0.3-    101008 585  0.1-  0.4+    101103 J53  1.4-  0.1-  
100919 B49  0.3-  0.5-    101008 585  0.1-  0.2-    101103 J53  0.4-  0.1+  
100919 B49  0.3-  0.7-    101008 585  0.0   0.5+    101103 J53  0.5+  0.0   
100919 B49  0.5-  0.1+    101008 585  0.1+  0.8+    101104 118  0.5+  0.5-  
100919 J01  0.2-  0.1+    101008 585  0.1-  0.3+    101104 118  0.8+  0.2-  
100919 J01  0.1-  0.2+    101008 585  0.2+  0.2+    101104 118  0.1+  0.5-  
100919 B70  0.8-  0.7+    101008 585  0.2+  0.1-    101104 J47  0.3-  0.4-  
100919 160  0.8+  0.4-    101008 585  0.0   0.2-    101104 J47  0.3-  0.2-  
100919 J01  0.0   0.3+    101008 585  0.0   0.1-    101104 J47  0.0   0.4-  
100919 473  0.3-  0.2-    101008 585  0.0   0.3+    101105 D92  0.7-  0.3+  
100919 473  0.4-  0.2-    101008 585  0.0   0.1-    101105 D92  0.7-  0.0   
100919 160  0.4+  0.2-    101008 585  0.5+  0.2-    101105 160  0.1+  0.1-  
100919 160  0.1+  0.3+    101008 585  0.1-  0.0     101105 160  0.1+  0.0   
100919 B70  0.8+  0.2+    101008 585  0.2-  0.3+    101105 160  0.4+  0.2+  
100919 B70  1.0+  1.1+    101008 B82  0.1-  0.0     101105 213  0.6+  0.0   
100920 A71  0.5-  0.4-    101008 B82  0.0   1.1+    101105 213  0.3+  0.3-  
100920 A71  0.8-  0.1-    101009 B82  0.4+  0.2+    101105 213  0.0   0.5-  
100920 J01  0.3+  0.1+    101009 H21  0.3-  0.5+    101105 B74  0.0   0.0   
100920 473  0.4-  0.2-    101009 H21  0.1-  0.8+    101105 B74  0.3+  0.2-  
100920 473  0.4-  0.2-    101009 H21  0.1-  0.2+    101105 B74  0.3+  0.2-  
100920 J01  0.5+  0.2-    101009 H21  0.1-  0.5+    101106 900  0.6+  0.1+  
100920 J01  0.7-  0.6+    101009 H21  0.0   0.1+    101106 900  0.8+  0.7-  
100921 H21  0.7-  0.4+    101009 H21  0.0   0.5+    101108 703  1.9+  1.7-  
100921 H21  0.1-  0.2+    101009 H21  0.0   0.4+    101108 703  0.2+  0.1+  
100921 H21  0.7-  0.2+    101009 H10  0.1-  0.1-    101108 703  0.9+  0.2-  
100921 H21  0.1-  0.9+    101009 H10  0.0   0.0     101110 D92 (2.2+  1.3-) 
100921 H21  0.1+  0.1-    101009 B42  0.5+  0.0     101110 D92  0.8-  0.6+  
100921 118  0.9-  0.7-    101009 B42  0.4+  0.1-    101119 J47  0.7+  0.1+  
100921 118  0.2-  0.7-    101009 B42  0.1+  0.3+    101119 J47  1.5+  0.3-  
100921 118  0.5-  1.1-    101009 130  0.1-  0.1-    101119 J47  1.6+  0.4-  
100921 118  0.6-  0.3-    101009 130  0.0   0.3+    101120 349  1.6+  0.6-  
100921 118  0.7+  0.7-    101009 130  0.2+  0.2-    101120 349  1.3+  0.1-  
100921 473  0.4-  0.2-    101009 130  0.5+  0.2-    101126 J38  0.0   0.1-  
100921 473  0.3-  0.2-    101010 B82  0.1+  0.0     101126 J38  0.0   0.7-  
100921 204  0.2-  0.2+    101010 B82  0.4+  0.1+    101126 J38  0.3-  0.0   
100922 204  0.1+  0.5+    101010 B82  0.2-  0.2+    101203 704  0.2-  0.3+  
100925 349  0.2+  0.4-    101010 H21  0.0   0.1+    101203 704  0.0   0.4-  
100925 349  0.5+  0.3-    101010 H21  0.1+  0.0     101203 704  1.3-  0.7+  
100925 204  0.6+  0.1+    101010 H21  0.2+  0.0     101203 704  0.9-  0.4+  
100925 I99  0.7+  0.0     101010 372  0.8-  1.3-    101204 B42  0.7-  0.3+  
100925 204  0.1-  0.2+    101010 372  0.8-  0.2-    101204 B42  0.8-  0.2+  
100925 I99  0.6+  0.5-    101010 349  0.1+  0.5+    2011/                   
100925 J01  0.4+  0.2-    101010 349  0.4+  0.2+    110102 349  1.9-  0.2+  
100925 J01  0.1-  0.2-    101010 561  0.2-  0.1+    110102 349 (2.2-  0.4+) 
100925 J01  0.4-  0.3-    101010 561  0.6-  0.3+    110105 215  0.9-  0.7+  
100926 J01  0.2+  0.3+    101010 561  0.8-  0.2+    110105 215  1.3-  0.4+  
100926 J01  0.1-  0.5+    101011 850  0.0   0.2-    110105 215  1.4-  0.1+  
100926 J01  0.2+  0.6+    101011 850  0.3+  0.1-    110829 568  0.1+  0.2+  
100928 A77  0.3+  0.1+    101011 D92  0.5+  0.6+    110829 568  0.1+  0.1+  
NAKANO
         **** Don't distribute anyone except personal use only ****
           (C) Copyright 2012 Orbit.Astro.Assoc./ComputingSection
write mail from CFAD0::NAKANO on 2012-01-02 08:59:41(JST).
 

   P/2010 R2 (La Sagra)
Epoch 2010 June 13.0 TT = JDT 2455360.5  
T 2010 June 25.81399 TT                                 Nakano
q   2.6226388            (2000.0)            P               Q
n   0.18073951     Peri.   59.54167     +0.80922317     +0.46050994
a   3.0981372      Node   270.75896     -0.58038699     +0.72296762
e   0.1534788      Incl.   21.39804     +0.09115265     +0.51502273
P   5.45
From 372 observations 2010 Aug. 12-2011 Aug. 29, mean residual 0".49.

߂܂B